Regional Weather Roundup
Issued by NWS

Home | Current Version | Previous Version | Graphics & Text | Print | Product List | Glossary On
Versions: 1 2 3 4 5 6 7 8 9 10 11 12 13 14 15 16 17 18 19 20 21 22 23 24 25 26 27 28 29 30 31 32 33 34 35 36 37 38 39 40 41 42 43 44 45 46 47 48 49 50
000
ASUS43 KTOP 201408
RWRKS

WEATHER ROUNDUP FOR KANSAS
NATIONAL WEATHER SERVICE GOODLAND KS
900 AM CDT SAT SEP 20 2014

NOTE:  "FAIR" INDICATES FEW OR NO CLOUDS BELOW 12,000 FEET WITH NO
SIGNIFICANT WEATHER AND/OR OBSTRUCTIONS TO VISIBILITY.

KSZ001>006-013>018-027>032-041>047-201500-
NORTHWEST KANSAS

CITY           SKY/WX    TMP DP  RH WIND       PRES   REMARKS
GOODLAND       SUNNY     64  56  75 N10       30.06R
HAYS           SUNNY     70  61  73 SW14      29.95S
HILL CITY      SUNNY     71  64  78 W12       29.95R
RUSSELL        SUNNY     71  63  75 SW13      29.93R
$$

KSZ061>065-074>080-084>089-201500-
SOUTHWEST KANSAS

CITY           SKY/WX    TMP DP  RH WIND       PRES   REMARKS
DODGE CITY     SUNNY     69  62  78 SW16      29.99S
ELKHART          N/A     66  59  78 SW9         N/A
GARDEN CITY    SUNNY     65  63  93 SW8       30.00R
GREAT BEND     SUNNY     70  63  78 SW12      29.97S
LIBERAL        SUNNY     66  63  88 S9        30.03S
PRATT          SUNNY     68  63  83 SW12      30.00S
$$

KSZ066>073-081>083-090>101-201500-
SOUTHEAST KANSAS

CITY           SKY/WX    TMP DP  RH WIND       PRES   REMARKS
CHANUTE        CLOUDY    70  69  97 S10       30.03R FOG
HUTCHINSON     SUNNY     72  65  78 S9        29.98S
MEDICINE LODGE   N/A     70  66  87 S8        29.99R
NEWTON         SUNNY     72  63  73 S10       30.03R
PARSONS        FOG       70  70 100 S5        30.04R VSB 1/2
WICHITA INTL   SUNNY     71  67  87 S8        30.00R FOG
WICHITA JABRA  SUNNY     71  67  87 S13       30.00R
WICHITA MCCONL SUNNY     70  70 100 S9        30.01R
WINFIELD       MOSUNNY   72  69  90 S10       30.02R
$$

KSZ007>012-019>026-033>040-048>060-102>105-201500-
NORTHEAST KANSAS

CITY           SKY/WX    TMP DP  RH WIND       PRES   REMARKS
CONCORDIA      SUNNY     73  65  75 SW9       29.95R
EMPORIA        SUNNY     72  68  87 S8        30.01R
LAWRENCE       SUNNY     72  68  87 SW8       29.99S FOG
MANHATTAN      SUNNY     74  68  81 SW14G20   29.95F
MARYSVILLE     MOSUNNY   70  68  94 CALM      29.96R
OLATHE IND     SUNNY     71  68  90 SW10      30.01R FOG
OLATHE EXE     MOSUNNY   71  68  90 S6        30.00S FOG
SALINA         SUNNY     72  66  81 S8        29.96R
TOPEKA BILLARD SUNNY     73  70  90 VRB5      29.98F
TOPEKA FORBES  SUNNY     71  68  90 S9        29.99S FOG
$$



USA.gov is the U.S. government's official web portal to all federal, state and local government web resources and services.